This demonstration page uses our WeatherBlox Daily Observations layout. Learn more.

Left ArrowRight Arrow

44.89941, -97.11507

Hourly Observations for June 20, 2018

Temp ( °F °C ) Dew Point ( °F °C ) Humidity (%) Winds ( mph kmh ) Pressure ( in mb ) Visibility ( mi km ) Precip ( " mm )
12:53 am 00:53 Clear 58 14.4 58 14.4 100 100 N 6 9 29.98 1015 10 16 0.00 0.00
1:53 am 01:53 Clear 58 14.4 58 14.4 100 100 N 7 11 29.96 1015 8 13 0.00 0.00
2:38 am 02:38 Clear with Mist and Fog 56 13.3 56 13.3 100 100 Calm 29.97 1015 2 3 0.00 0.00
2:42 am 02:42 Clear with Mist and Fog 56 13.3 56 13.3 100 100 NNE 3 6 29.97 1015 1 2 0.00 0.00
2:53 am 02:53 Clear with Fog 56 13.3 56 13.3 100 100 N 3 6 29.97 1015 1 1 0.00 0.00
3:08 am 03:08 Mostly Cloudy with Fog 56 13.3 56 13.3 100 100 NNE 5 7 29.97 1015 1 1 0.00 0.00
3:26 am 03:26 Partly Cloudy with Mist and Fog 56 13.3 56 13.3 100 100 N 6 9 29.97 1015 1 2 0.00 0.00
3:33 am 03:33 Mostly Cloudy with Fog 56 13.3 56 13.3 100 100 N 6 9 29.97 1015 1 1 0.00 0.00
3:38 am 03:38 Mostly Cloudy with Fog 56 13.3 56 13.3 100 100 N 5 7 29.97 1015 0 0 0.00 0.00
3:49 am 03:49 Mostly Cloudy with Fog 55 13 55 13 100 100 N 6 9 29.97 1015 1 1 0.00 0.00
3:53 am 03:53 Mostly Cloudy with Fog 57 13.9 57 13.9 100 100 N 7 11 29.95 1014 1 1 0.00 0.00
3:59 am 03:59 Mostly Cloudy with Mist and Fog 57 13.9 57 13.9 100 100 N 8 13 29.97 1015 2 2 0.00 0.00
4:05 am 04:05 Mostly Cloudy with Mist and Fog 57 13.9 57 13.9 100 100 N 7 11 29.97 1015 3 5 0.00 0.00
4:12 am 04:12 Partly Cloudy with Mist and Fog 57 13.9 57 13.9 100 100 N 6 9 29.97 1015 4 6 0.00 0.00
4:53 am 04:53 Mostly Cloudy 56 13.3 56 13.3 100 100 N 5 7 29.96 1014 7 11 0.00 0.00
5:53 am 05:53 Cloudy 58 14.4 57 13.9 97 97 N 7 11 29.96 1015 10 16 0.00 0.00
6:53 am 06:53 Cloudy 58 14.4 57 13.9 97 97 N 9 15 29.95 1014 10 16 0.00 0.00
7:53 am 07:53 Cloudy 61 16.1 58 14.4 90 90 N 10 17 29.94 1014 10 16 0.00 0.00
8:53 am 08:53 Cloudy 64 17.8 58 14.4 81 81 NNE 13 20 29.94 1014 10 16 0.00 0.00
9:53 am 09:53 Cloudy 66 18.9 58 14.4 75 75 NNE 13 20 29.94 1014 10 16 0.00 0.00
10:53 am 10:53 Cloudy 66 18.9 59 15 78 78 NNE 12 19 29.93 1014 10 16 0.00 0.00
11:53 am 11:53 Cloudy 69 20.6 60 15.6 73 73 NNE 14 22 29.93 1014 10 16 0.00 0.00
12:53 pm 12:53 Cloudy 69 20.6 60 15.6 73 73 NNE 13 20 29.91 1013 10 16 0.00 0.00
1:53 pm 13:53 Cloudy 70 21.1 58 14.4 66 66 NNE 13 20 29.92 1013 10 16 0.00 0.00
2:53 pm 14:53 Sunny 71 21.7 60 15.6 68 68 NNE 15 24 29.91 1013 10 16 0.00 0.00
3:53 pm 15:53 Mostly Cloudy 71 21.7 60 15.6 68 68 NNE 12 19 29.89 1012 10 16 0.00 0.00
4:53 pm 16:53 Cloudy 70 21.1 58 14.4 66 66 NNE 10 17 29.89 1012 10 16 0.00 0.00
5:53 pm 17:53 Mostly Cloudy 70 21.1 59 15 68 68 N 8 13 29.89 1012 10 16 0.00 0.03
6:53 pm 18:53 Cloudy with Light Rain 68 20 62 16.7 81 81 N 7 11 29.89 1012 10 16 0.00 0.03
7:53 pm 19:53 Cloudy with Light Rain 66 18.9 63 17.2 90 90 N 8 13 29.90 1012 5 8 0.01 0.25
8:53 pm 20:53 Cloudy with Light Rain 67 19.4 63 17.2 87 87 NNW 8 13 29.89 1012 10 16 0.01 0.25
9:53 pm 21:53 Cloudy with Light Rain 64 17.8 60 15.6 87 87 ENE 8 13 29.91 1013 9 14 0.04 1.02
10:53 pm 22:53 Cloudy with Light Rain 63 17.2 62 16.7 97 97 W 3 6 29.91 1013 8 13 0.04 1.02
11:53 pm 23:53 Cloudy with Light Rain 63 17.2 63 17.2 100 100 SSW 3 6 29.89 1012 8 13 0.05 1.27

Powered by AerisWeather